• Em Portugal
  • Lista de países
  • Para 7 dias
  • Temperatura da água
  • Mapas de satélite
  • Mapa do tempo
  • Widgets de tempo
  • user-avatar
    Iniciar Sessão

    Previsão horária em Marmaris

    Hoje, 20 Junho, Quarta-feira

    Tempo Temperatura Precipitação Vento Pressão Humidade
    00:00 +24°C° 0,1 mm 1 m/s 754 mmHg 78%
    01:00 +24°C° 0,1 mm 1 m/s 754 mmHg 79%
    02:00 +23°C° 0 mm 1 m/s 754 mmHg 77%
    03:00 +23°C° 0 mm 1 m/s 754 mmHg 77%
    04:00 +23°C° 0 mm 1 m/s 754 mmHg 78%
    05:00 +23°C° 0 mm 1 m/s 754 mmHg 78%
    06:00 +24°C° 0 mm 1 m/s 755 mmHg 71%
    07:00 +26°C° 0 mm 1 m/s 755 mmHg 64%
    08:00 +26°C° 0 mm 0 m/s 755 mmHg 56%
    09:00 +29°C° 0 mm 1 m/s 755 mmHg 52%
    10:00 +30°C° 0 mm 1 m/s 755 mmHg 49%
    11:00 +31°C° 0 mm 2 m/s 755 mmHg 45%
    12:00 +31°C° 0,2 mm 2 m/s 755 mmHg 46%
    13:00 +31°C° 0,2 mm 2 m/s 755 mmHg 47%
    14:00 +31°C° 0,2 mm 3 m/s 755 mmHg 48%
    15:00 +31°C° 0,2 mm 3 m/s 755 mmHg 50%
    16:00 +30°C° 0,2 mm 3 m/s 756 mmHg 52%
    17:00 +30°C° 0,2 mm 2 m/s 756 mmHg 53%
    18:00 +29°C° 0,2 mm 2 m/s 756 mmHg 60%
    19:00 +27°C° 0,2 mm 2 m/s 756 mmHg 66%
    20:00 +26°C° 0,2 mm 2 m/s 756 mmHg 72%
    21:00 +26°C° 0,1 mm 2 m/s 756 mmHg 75%
    22:00 +25°C° 0,1 mm 2 m/s 756 mmHg 77%
    23:00 +25°C° 0,1 mm 1 m/s 757 mmHg 80%

    Amanhã, 21 Junho, Quinta-feira

    Tempo Temperatura Precipitação Vento Pressão Humidade
    00:00 +24°C° 0 mm 1 m/s 757 mmHg 81%
    01:00 +24°C° 0 mm 1 m/s 756 mmHg 82%
    02:00 +24°C° 0 mm 1 m/s 756 mmHg 83%
    03:00 +23°C° 0 mm 1 m/s 756 mmHg 83%
    04:00 +23°C° 0 mm 1 m/s 756 mmHg 84%
    05:00 +23°C° 0 mm 1 m/s 756 mmHg 84%
    06:00 +25°C° 0 mm 1 m/s 756 mmHg 76%
    07:00 +27°C° 0 mm 1 m/s 756 mmHg 69%
    08:00 +28°C° 0 mm 1 m/s 756 mmHg 61%
    09:00 +29°C° 0 mm 2 m/s 756 mmHg 56%
    10:00 +30°C° 0 mm 2 m/s 756 mmHg 51%
    11:00 +31°C° 0 mm 3 m/s 756 mmHg 46%
    12:00 +33°C° 0,1 mm 3 m/s 756 mmHg 45%
    13:00 +33°C° 0,1 mm 3 m/s 756 mmHg 45%
    14:00 +33°C° 0,1 mm 4 m/s 755 mmHg 44%
    15:00 +32°C° 0,1 mm 4 m/s 755 mmHg 47%
    16:00 +31°C° 0,1 mm 3 m/s 755 mmHg 50%
    17:00 +30°C° 0,1 mm 3 m/s 755 mmHg 53%
    18:00 +29°C° 0 mm 3 m/s 755 mmHg 61%
    19:00 +27°C° 0 mm 2 m/s 755 mmHg 68%
    20:00 +25°C° 0 mm 2 m/s 755 mmHg 76%
    21:00 +25°C° 0 mm 2 m/s 755 mmHg 79%
    22:00 +24°C° 0 mm 2 m/s 756 mmHg 82%
    23:00 +24°C° 0 mm 2 m/s 756 mmHg 86%

    Depois de amanhã, 22 Junho, Sexta-feira

    Tempo Temperatura Precipitação Vento Pressão Humidade
    00:00 +23°C° 0 mm 2 m/s 756 mmHg 87%
    01:00 +23°C° 0 mm 2 m/s 755 mmHg 88%
    02:00 +23°C° 0 mm 2 m/s 755 mmHg 90%
    03:00 +23°C° 0 mm 2 m/s 755 mmHg 90%
    04:00 +22°C° 0 mm 3 m/s 755 mmHg 91%
    05:00 +21°C° 0 mm 3 m/s 754 mmHg 91%
    06:00 +24°C° 0 mm 3 m/s 755 mmHg 82%
    07:00 +26°C° 0 mm 3 m/s 755 mmHg 74%
    08:00 +28°C° 0 mm 3 m/s 755 mmHg 65%
    09:00 +29°C° 0 mm 3 m/s 755 mmHg 60%
    10:00 +30°C° 0 mm 4 m/s 755 mmHg 54%
    11:00 +32°C° 0 mm 4 m/s 755 mmHg 49%
    12:00 +32°C° 0,1 mm 4 m/s 754 mmHg 49%
    13:00 +32°C° 0,1 mm 5 m/s 754 mmHg 49%
    14:00 +32°C° 0,1 mm 5 m/s 754 mmHg 49%
    15:00 +32°C° 0,1 mm 5 m/s 754 mmHg 49%
    16:00 +32°C° 0,1 mm 4 m/s 753 mmHg 50%
    17:00 +32°C° 0,1 mm 4 m/s 753 mmHg 51%
    18:00 +29°C° 0 mm 4 m/s 753 mmHg 56%
    19:00 +28°C° 0 mm 4 m/s 754 mmHg 62%
    20:00 +26°C° 0 mm 3 m/s 754 mmHg 68%
    21:00 +26°C° 0 mm 3 m/s 754 mmHg 70%
    22:00 +25°C° 0 mm 3 m/s 754 mmHg 71%
    23:00 +25°C° 0 mm 3 m/s 754 mmHg 73%

    23 Junho, Sábado

    Tempo Temperatura Precipitação Vento Pressão Humidade
    00:00 +25°C° 0 mm 3 m/s 754 mmHg 73%
    01:00 +25°C° 0 mm 3 m/s 754 mmHg 73%
    02:00 +24°C° 0 mm 3 m/s 754 mmHg 74%
    03:00 +24°C° 0 mm 3 m/s 753 mmHg 73%
    04:00 +24°C° 0 mm 3 m/s 753 mmHg 73%
    05:00 +24°C° 0 mm 3 m/s 753 mmHg 73%
    06:00 +26°C° 0 mm 3 m/s 753 mmHg 65%
    07:00 +28°C° 0 mm 3 m/s 753 mmHg 57%
    08:00 +30°C° 0 mm 3 m/s 753 mmHg 50%
    09:00 +31°C° 0 mm 3 m/s 753 mmHg 44%
    10:00 +34°C° 0 mm 3 m/s 753 mmHg 39%
    11:00 +36°C° 0 mm 3 m/s 753 mmHg 34%
    12:00 +36°C° 0 mm 4 m/s 753 mmHg 33%
    13:00 +36°C° 0 mm 4 m/s 753 mmHg 32%
    14:00 +36°C° 0 mm 5 m/s 753 mmHg 31%
    15:00 +36°C° 0 mm 4 m/s 753 mmHg 32%
    16:00 +35°C° 0 mm 4 m/s 752 mmHg 33%
    17:00 +35°C° 0 mm 4 m/s 752 mmHg 33%
    18:00 +33°C° 0 mm 4 m/s 752 mmHg 40%
    19:00 +30°C° 0 mm 3 m/s 753 mmHg 46%
    20:00 +28°C° 0 mm 3 m/s 753 mmHg 52%
    21:00 +28°C° 0 mm 3 m/s 753 mmHg 54%
    22:00 +27°C° 0 mm 3 m/s 753 mmHg 55%
    23:00 +26°C° 0 mm 2 m/s 753 mmHg 57%

    24 Junho, Domingo

    Tempo Temperatura Precipitação Vento Pressão Humidade
    00:00 +26°C° 0 mm 2 m/s 753 mmHg 57%
    01:00 +26°C° 0 mm 2 m/s 753 mmHg 57%
    02:00 +26°C° 0 mm 2 m/s 753 mmHg 57%
    03:00 +25°C° 0 mm 2 m/s 753 mmHg 60%
    04:00 +25°C° 0 mm 2 m/s 753 mmHg 62%
    05:00 +25°C° 0 mm 2 m/s 752 mmHg 64%
    06:00 +27°C° 0 mm 2 m/s 753 mmHg 58%
    07:00 +29°C° 0 mm 2 m/s 753 mmHg 52%
    08:00 +31°C° 0 mm 2 m/s 753 mmHg 46%
    09:00 +34°C° 0 mm 2 m/s 753 mmHg 42%
    10:00 +35°C° 0 mm 2 m/s 753 mmHg 37%
    11:00 +37°C° 0 mm 3 m/s 753 mmHg 33%
    12:00 +37°C° 0 mm 3 m/s 753 mmHg 33%
    13:00 +37°C° 0 mm 3 m/s 753 mmHg 33%
    14:00 +37°C° 0 mm 4 m/s 752 mmHg 34%
    15:00 +36°C° 0 mm 3 m/s 752 mmHg 37%
    16:00 +35°C° 0 mm 3 m/s 752 mmHg 40%
    17:00 +35°C° 0 mm 3 m/s 752 mmHg 43%
    18:00 +33°C° 0 mm 3 m/s 753 mmHg 48%
    19:00 +31°C° 0 mm 3 m/s 753 mmHg 54%
    20:00 +29°C° 0 mm 2 m/s 753 mmHg 60%
    21:00 +29°C° 0 mm 2 m/s 753 mmHg 62%
    22:00 +28°C° 0 mm 2 m/s 753 mmHg 64%
    23:00 +27°C° 0 mm 2 m/s 753 mmHg 66%

    25 Junho, Segunda-feira

    Tempo Temperatura Precipitação Vento Pressão Humidade
    00:00 +27°C° 0 mm 2 m/s 753 mmHg 67%
    01:00 +27°C° 0 mm 2 m/s 753 mmHg 67%
    02:00 +27°C° 0 mm 2 m/s 753 mmHg 67%
    03:00 +26°C° 0 mm 2 m/s 752 mmHg 66%
    04:00 +26°C° 0 mm 2 m/s 752 mmHg 65%
    05:00 +26°C° 0 mm 2 m/s 752 mmHg 65%
    06:00 +28°C° 0 mm 2 m/s 752 mmHg 58%
    07:00 +30°C° 0 mm 2 m/s 753 mmHg 51%
    08:00 +34°C° 0 mm 2 m/s 753 mmHg 44%
    09:00 +35°C° 0 mm 2 m/s 753 mmHg 41%
    10:00 +36°C° 0 mm 3 m/s 752 mmHg 37%
    11:00 +37°C° 0 mm 3 m/s 752 mmHg 34%
    12:00 +37°C° 0 mm 3 m/s 752 mmHg 34%
    13:00 +37°C° 0 mm 3 m/s 752 mmHg 34%
    14:00 +37°C° 0 mm 4 m/s 752 mmHg 35%
    15:00 +37°C° 0 mm 4 m/s 752 mmHg 37%
    16:00 +36°C° 0 mm 3 m/s 752 mmHg 40%
    17:00 +35°C° 0 mm 3 m/s 752 mmHg 43%
    18:00 +33°C° 0 mm 3 m/s 752 mmHg 52%
    19:00 +30°C° 0 mm 3 m/s 752 mmHg 60%
    20:00 +28°C° 0 mm 3 m/s 752 mmHg 69%
    21:00 +28°C° 0,1 mm 2 m/s 753 mmHg 72%
    22:00 +27°C° 0,1 mm 2 m/s 753 mmHg 76%
    23:00 +26°C° 0,1 mm 2 m/s 753 mmHg 79%
    Mostrar mais